Flag for Norway Weather past 2 weeks in Tananger, Norway

Now
55 °F

Sprinkles. Broken clouds.


Feels Like: 54 °F
Forecast: 53 / 59 °F
Wind: 6 mph from Northwest

Location: Stavanger / Sola

Current Time: Aug 23, 2014 at 3:58:54 PM

Latest Report: Aug 23, 2014 at 3:20 PM


Visibility: N/A

Pressure: 29.59 "Hg

Humidity: 77%

Dew point: 48 °F

Location of TanangerLocation

Historic Weather in Tananger — Graph

°F

Tananger temperature yesterday

Maximum temperature yesterday: 57 °F (at 11:50 AM)
Minimum temperature yesterday: 48 °F (at 5:50 AM)
Average temperature yesterday: 54 °F

Past Weeks' High & Low Weather Summary

 TemperatureHumidityPressure
High70 °F (Aug 8, 6:50 PM)100% (Aug 18, 12:20 AM)29.92 "Hg (Aug 18, 12:20 AM)
Low48 °F (Aug 22, 5:50 AM)46% (Aug 9, 3:20 PM)29.21 "Hg (Aug 18, 9:20 AM)
Average59 °F78%29.52 "Hg
* Reported Aug 8 2:20 PM — Aug 23 2:50 PM, Tananger, Weather by CustomWeather, © 2014

Note: Actual official high and low records may vary slightly from our data, if they occured in-between our weather recording intervals... More about our weather records

Advertising

Tananger weather history for previous 24 hours

 ConditionsComfort  
Time TempWeatherWind HumidityBarometerVisibility
2:50 PM
Aug 23
57 °FScattered showers. Broken clouds.5 mph82%29.59 "HgN/A
2:20 PM54 °FSprinkles. Broken clouds.7 mph88%29.59 "HgN/A
1:50 PM54 °FSprinkles. Broken clouds.7 mph88%29.59 "HgN/A
1:20 PM54 °FSprinkles. Scattered clouds.8 mph88%29.59 "HgN/A
12:50 PM54 °FSprinkles. Broken clouds.8 mph82%29.59 "HgN/A
12:20 PM57 °FBroken clouds.8 mph72%29.59 "HgN/A
11:50 AM57 °FBroken clouds.7 mph77%29.59 "HgN/A
11:20 AM55 °FBroken clouds.7 mph77%29.59 "HgN/A
10:50 AM55 °FBroken clouds.5 mph77%29.59 "HgN/A
10:20 AM55 °FBroken clouds.5 mph82%29.56 "HgN/A
9:50 AM54 °FScattered clouds.3 mph82%29.59 "HgN/A
9:20 AM52 °FBroken clouds.3 mph88%29.59 "HgN/A
8:50 AM52 °FSprinkles. Broken clouds.3 mph94%29.59 "HgN/A
8:20 AM52 °FPartly sunny.2 mph88%29.59 "HgN/A
7:50 AM50 °FPartly sunny.3 mph94%29.56 "HgN/A
7:20 AM50 °FPartly sunny.2 mph94%29.56 "HgN/A
6:50 AM50 °FScattered showers. Partly cloudy.3 mph94%29.56 "HgN/A
6:20 AM50 °FScattered showers. Partly cloudy.6 mph94%29.56 "HgN/A
5:50 AM50 °FSprinkles. Partly cloudy.3 mph94%29.56 "HgN/A
5:20 AM50 °FLight rain. Partly cloudy.5 mph94%29.59 "HgN/A
4:50 AM50 °FPartly cloudy.6 mph94%29.56 "HgN/A
3:50 AM50 °FPassing clouds.3 mph94%29.59 "HgN/A
3:20 AM50 °FPartly cloudy.6 mph94%29.59 "HgN/A
2:50 AM52 °FPassing clouds.6 mph94%29.59 "HgN/A
1:50 AM52 °FPassing clouds.3 mph88%29.59 "HgN/A
1:20 AM52 °FPassing clouds.3 mph94%29.59 "HgN/A
12:50 AM54 °FPassing clouds.3 mph82%29.59 "HgN/A
12:20 AM54 °FPartly cloudy.7 mph82%29.59 "HgN/A
11:50 PM
Aug 22
54 °FPartly cloudy.6 mph88%29.59 "HgN/A
11:20 PM52 °FScattered showers. Passing clouds.5 mph94%29.59 "HgN/A
10:50 PM52 °FThundershowers. Passing clouds.6 mph94%29.59 "HgN/A
10:20 PM54 °FThundershowers. Passing clouds.5 mph88%29.59 "HgN/A
9:50 PM54 °FScattered showers. Broken clouds.3 mph88%29.59 "HgN/A
9:20 PM55 °FThundershowers. Broken clouds.3 mph88%29.59 "HgN/A
8:50 PM55 °FThundershowers. Broken clouds.2 mph88%29.59 "HgN/A
8:20 PM55 °FScattered showers. Broken clouds.1 mph82%29.59 "HgN/A
7:50 PM55 °FBroken clouds.2 mph77%29.59 "HgN/A
7:20 PM57 °FBroken clouds.2 mph77%29.59 "HgN/A
6:50 PM55 °FBroken clouds.5 mph82%29.59 "HgN/A
6:20 PM55 °FBroken clouds.3 mph82%29.59 "HgN/A
5:50 PM55 °FScattered showers. Broken clouds.6 mph88%29.59 "HgN/A
5:20 PM54 °FSprinkles. Broken clouds.6 mph94%29.59 "HgN/A
4:50 PM55 °FRain showers. Broken clouds.10 mph82%29.59 "HgN/A
4:20 PM55 °FScattered showers. Broken clouds.9 mph82%29.59 "HgN/A
3:50 PM55 °FBroken clouds.8 mph82%29.59 "HgN/A
3:20 PM55 °FPartly sunny.8 mph88%29.59 "HgN/A
Weather by CustomWeather, © 2014

See weather overviewHow to use our weather pages